This is the latest recevied weather packets stored in our database for station/object SP3VBV-2. If no packets are shown the sender has not sent any weather packets the latest 10 day(s).
| Time | Temp. | Humidity | Pressure | Rain* | Wind** | Luminosity | Snow |
|---|---|---|---|---|---|---|---|
| 1777966919 | 21.11° C | 40% | 1008 hPa | - | - | - | - |
| 1777966319 | 20.56° C | 39% | 1008.2 hPa | - | - | - | - |
| 1777965719 | 20.56° C | 41% | 1008.2 hPa | - | - | - | - |
| 1777965119 | 20° C | 39% | 1008.2 hPa | - | - | - | - |
| 1777964519 | 20° C | 39% | 1008.3 hPa | - | - | - | - |
| 1777963326 | 19.44° C | 40% | 1008.3 hPa | - | - | - | - |
| 1777962727 | 19.44° C | 41% | 1008.4 hPa | - | - | - | - |
| 1777962127 | 19.44° C | 41% | 1008.5 hPa | - | - | - | - |
| 1777961527 | 18.33° C | 45% | 1008.6 hPa | - | - | - | - |
| 1777960926 | 18.33° C | 45% | 1008.6 hPa | - | - | - | - |
| 1777960326 | 17.78° C | 46% | 1008.6 hPa | - | - | - | - |
| 1777959730 | 17.78° C | 43% | 1008.6 hPa | - | - | - | - |
| 1777959126 | 17.78° C | 44% | 1008.7 hPa | - | - | - | - |
| 1777958785 | 17.22° C | 43% | 1008.8 hPa | - | - | - | - |
| 1777958520 | 17.22° C | 43% | 1008.7 hPa | - | - | - | - |
| 1777957919 | 17.22° C | 42% | 1008.9 hPa | - | - | - | - |
| 1777957319 | 16.67° C | 44% | 1008.9 hPa | - | - | - | - |
| 1777956119 | 16.67° C | 43% | 1008.9 hPa | - | - | - | - |
| 1777955519 | 16.67° C | 43% | 1008.8 hPa | - | - | - | - |
| 1777954330 | 16.67° C | 43% | 1008.9 hPa | - | - | - | - |
| 1777953126 | 16.11° C | 43% | 1009 hPa | - | - | - | - |
| 1777952526 | 16.11° C | 44% | 1009 hPa | - | - | - | - |
| 1777951926 | 16.11° C | 45% | 1009.1 hPa | - | - | - | - |
| 1777951326 | 15.56° C | 46% | 1009 hPa | - | - | - | - |
| 1777950725 | 15.56° C | 46% | 1009.1 hPa | - | - | - | - |
* Rain since midnight (hover to see other rain measurements)
** Current wind speed in m/s (hover to see current wind gust speed)